Vertical_Velocity
-0 -1 1 0 1 -2 -2 -0 -3 -3 -3 -2 -1 0 -0 -1 1 3 -3 -1 -0 1 -4 -1 -0 1 1 0 -2 -2 -1 -2 -1 -1 -2 0 -0 1 1 -1 4 3 4 4 2 0 1 4 10 5 4 3 2 2
2 -0 -2 1 2 1 1 0 -1 -1 2 1 2 2 -1 -0 -1 3 1 -3 -4 5 -2 -0 -2 3 1 -0 -2 -2 -1 -3 -2 0 -0 -2 -1 1 -2 5 2 7 1 2 -2 5 2 1 -3 -1 0 0 -1 3
-0 -0 -0 -0 3 2 -1 0 2 -2 -1 1 0 2 1 1 -2 1 1 -2 -3 3 -1 -1 0 1 -0 -1 -2 -2 -1 -1 -3 -3 -3 -2 -3 15 4 5 -3 2 0 -1 -0 2 1 -1 1 0 -3 -3 -1 1
2 2 -1 -0 0 -1 3 1 0 1 0 0 -0 1 1 0 -0 0 2 -3 -2 0 -1 -7 -1 1 -1 -2 -2 -3 -0 -1 -3 1 -1 -2 -3 -2 -1 0 -2 -1 1 4 -0 1 2 2 3 2 2 0 -1 1
1 1 1 1 -0 -1 1 -1 0 0 1 2 1 3 1 1 -2 1 1 -0 -3 -1 -1 -1 -1 2 -1 -3 -0 -1 -1 -2 -3 3 -0 -1 -1 -2 -2 -0 3 4 -1 -1 -3 -3 -1 -1 0 1 -0 0 -1 3
1 -0 -0 -1 -1 3 4 2 1 2 1 3 0 1 3 1 -2 -1 1 1 -2 -2 2 -2 2 2 -1 -0 -1 -1 0 -0 -1 0 -3 1 -1 -1 4 -3 -2 5 5 12 7 1 1 -1 -1 1 2 5 -2 -0
-0 0 -1 -0 1 -1 0 5 4 4 7 3 3 2 3 1 -1 -1 7 -2 -1 1 0 -1 -0 0 -1 -1 -2 -1 0 1 -1 -2 -0 1 -2 -3 -2 -1 -3 3 4 6 7 2 4 1 1 7 -1 3 7 2
-2 -1 -1 -0 2 3 1 1 5 7 6 5 9 3 4 1 -4 -1 3 -1 -1 -1 -0 0 1 0 -1 -0 -1 -0 -1 -1 0 1 1 2 -1 0 0 -1 -1 0 3 5 4 3 4 15 12 8 3 3 1 -0
-3 -3 -2 1 2 3 4 3 1 3 6 6 7 5 0 -7 4 6 1 -2 -0 -1 1 2 0 -0 0 1 0 -1 -2 -2 -1 -1 1 1 -1 -4 1 -2 -2 -0 -1 1 1 0 2 6 5 2 2 2 0 0
-3 -4 0 3 3 4 3 3 5 4 4 6 1 -4 -7 6 4 3 -4 -0 -1 -5 -1 2 -0 0 0 -0 -0 -1 -1 -1 -1 0 -1 -5 -5 -0 3 1 -2 -3 -3 -1 -1 -1 1 -2 2 -0 -1 -1 -2 1
-3 0 2 2 4 4 4 2 1 2 -0 -2 -1 -0 5 1 5 6 -3 -4 -1 -2 2 3 -2 -1 1 1 -0 -1 -1 0 -1 2 -3 -4 2 2 0 2 1 -1 -2 -2 -3 1 0 -0 -1 0 -0 1 1 -0
0 1 3 4 3 2 0 -1 -3 -6 4 6 8 8 2 5 5 -5 -10 -5 -1 -1 2 0 -1 2 0 1 -0 2 0 -3 0 -2 -2 -2 13 -2 -2 -0 1 2 -1 -3 -3 -3 -4 -2 -2 -2 0 1 -0 -0
2 2 3 2 1 1 -2 -2 2 7 12 21 12 14 3 -1 -11 -9 -3 0 4 6 -1 -2 -1 -1 -1 -1 0 -0 1 1 0 -3 -2 3 -1 -2 -2 -5 -5 -3 -2 -1 -0 2 2 1 1 2 2 0 -1 -2
2 1 1 1 0 0 0 3 10 12 3 2 1 -1 -5 -17 -9 -4 4 5 2 -0 0 -0 -0 -1 0 2 4 9 -2 0 -3 -3 2 -2 1 0 3 5 -0 -2 -2 -1 -0 0 1 2 1 -1 -1 -1 1 0
2 1 1 6 9 12 12 8 3 5 10 -0 9 -12 -8 2 2 3 2 -0 -1 -1 2 1 1 2 2 4 -0 9 3 -1 -0 -2 0 0 -0 -1 -2 -3 -2 -0 2 2 -0 -1 -1 -1 0 1 1 -1 -0 1
4 3 4 3 2 4 3 1 7 1 11 9 -4 1 -2 -1 1 -1 0 -1 -1 1 -1 3 0 -1 -2 -2 0 -2 -1 -0 -2 -2 0 1 0 1 3 3 3 2 2 0 -1 -1 -1 -2 -1 -1 -0 1 0 -0
-0 2 -1 0 6 10 -0 17 0 -6 -3 -4 -0 1 6 3 -5 -2 -2 1 0 1 3 -0 -1 -1 1 -1 -0 -1 0 -1 1 1 1 1 1 1 0 -0 1 1 2 2 1 1 0 1 1 -1 -2 -2 -1 0
-0 4 5 1 2 -3 2 22 12 1 -1 2 3 8 2 -4 -2 -3 -0 -1 -0 1 1 0 0 1 -0 -1 -1 -1 0 1 1 1 1 0 0 1 1 1 1 -0 -1 -1 -1 0 0 0 0 -0 -0 -1 -2 -2
5 -2 -6 -2 11 20 -4 0 5 3 -2 3 1 -1 -4 -3 -2 -2 -1 -0 0 -0 0 1 0 -0 -1 -0 1 1 1 1 1 0 1 1 1 1 1 1 1 0 0 0 -0 -0 0 0 0 0 0 -0 -0 -0
2 0 0 -1 -0 -1 4 -1 -3 -4 -4 -6 -3 -1 -1 -0 -1 -1 -0 1 1 1 -0 -1 -2 -1 -0 -1 -0 1 2 1 1 2 2 1 -0 -0 0 1 0 0 0 0 1 1 -0 -1 -0 -1 -1 -1 -0 -0
0 2 1 -1 2 2 2 2 -1 -7 -1 -2 -0 -0 -1 -1 -1 -1 -1 -1 -0 0 -0 0 -0 -0 1 1 0 1 1 1 -1 1 2 3 2 1 -0 -0 -0 0 -0 -1 -1 -0 -0 -0 0 0 0 0 0 1
1 0 -0 -1 -0 -0 2 -0 -1 -0 1 1 0 -1 -2 -1 -0 0 1 -0 -0 -1 -1 -1 1 1 1 1 -0 0 0 -0 0 0 -1 -2 -3 -2 -3 -3 -4 -4 -4 -3 -2 -2 -2 -1 -1 -1 -1 -1 -0 0
4 3 2 0 -0 -1 -3 -2 -1 0 -0 -1 -1 -0 -1 -0 1 0 -0 -0 -1 -1 -0 0 -0 0 2 2 0 -0 0 0 -1 -3 -3 -4 -5 -4 -3 -4 -5 -6 -4 -3 -2 -2 -2 -2 -2 -2 -2 -1 -1 -1
4 3 1 0 -0 -1 -1 -2 -2 0 -1 1 -1 -1 -0 -1 -1 -1 -1 -1 -1 0 1 1 1 1 -1 -1 -1 -0 -1 -2 -2 -3 -3 -5 -4 -4 -4 -5 -5 -6 -4 -2 -2 -2 -1 -1 -1 -1 -1 -1 -1 -1
1 -1 -0 -1 -1 -1 -0 -2 -1 -0 1 -0 -0 0 -1 -1 -1 -1 -1 0 1 0 -0 0 -1 -2 -2 -2 -2 -1 -1 -3 -4 -4 -4 -6 -6 -4 -3 -3 -4 -4 -3 -2 -1 -1 -1 -0 -1 -1 -0 0 0 -0
0 -1 -1 -1 -2 0 -1 -1 -1 -2 -2 -2 -2 -2 -1 -0 0 1 0 -1 -1 -1 -1 -2 -3 -3 -2 -2 -2 -2 -3 -2 -3 -4 -3 -4 -5 -4 -3 -2 -3 -4 -4 -3 -2 -1 -0 -0 0 -0 -0 -0 0 0
-0 -0 -2 -2 -2 -1 -1 -3 -1 1 -1 -2 -1 -1 0 0 -1 -1 -3 -2 -2 -1 -2 -3 -3 -2 -2 -2 -2 -2 -1 -1 -2 -2 -3 -4 -4 -4 -3 -3 -3 -2 -4 -3 -2 -1 -1 -1 -1 -1 -0 -0 -0 -0
0 0 -0 -0 -0 -1 -2 -2 -2 -2 -2 -1 -0 -1 -1 -0 -1 -1 -1 -1 -1 -1 -2 -2 -2 -2 -2 -2 -2 -1 -1 -1 -1 -2 -3 -3 -3 -3 -3 -3 -2 -2 -2 -3 -3 -1 -0 -0 -0 -0 -0 -0 -0 -0
0 -0 -0 -1 -1 -1 -1 0 0 1 1 0 -1 -1 -1 0 0 -0 -0 -0 -0 -1 -1 -1 -1 -2 -1 -1 -1 -1 -1 -1 -1 -1 -1 -2 -2 -2 -3 -3 -4 -3 -3 -4 -3 -2 -1 -1 -0 -0 -0 -0 -0 -0
-0 -0 -1 -1 -1 -1 -1 -2 -2 -2 -2 -1 -1 -0 1 0 0 -0 -1 -0 -1 -0 0 -0 -0 -0 -1 -0 -1 -1 -1 -1 -1 -0 -0 -0 -1 -1 -2 -2 -2 -3 -2 -2 -3 -2 -1 -0 -0 -0 -0 -0 -0 -0
-0 -0 -0 -1 -1 -1 -1 -1 -1 -0 1 -0 -1 -0 1 1 1 0 0 0 1 1 1 0 0 0 -1 -1 -2 -1 -1 -0 -0 -0 -0 0 -0 -1 -2 -2 -3 -3 -3 -3 -3 -3 -3 -1 -1 -1 -0 -0 0 0
-0 -1 -1 -1 -1 -0 0 0 -0 0 0 1 1 1 1 1 0 1 1 1 1 1 1 1 1 0 0 -0 -0 -1 -1 -1 -1 -1 -0 1 -0 -1 -1 -2 -2 -3 -3 -3 -3 -4 -4 -3 -2 -1 -0 -0 0 0
-1 -1 -1 -1 -1 -0 -0 -0 0 -0 1 1 1 1 1 2 1 4 2 3 3 2 1 1 2 2 1 -0 -1 -0 -1 -1 -1 -1 -1 -1 -1 -1 -2 -2 -1 -1 -2 -2 -2 -2 -3 -2 -2 -1 -1 -1 -1 -1
Height
5420 5427 5434 5441 5448 5454 5460 5466 5472 5478 5483 5489 5494 5498 5502 5505 5508 5511 5512 5513 5514 5513 5512 5512 5513 5514 5514 5515 5515 5515 5514 5513 5512 5512 5514 5514 5514 5515 5515 5516 5516 5517 5519 5521 5522 5523 5526 5526 5528 5531 5534 5536 5540 5542
5406 5413 5420 5428 5436 5444 5450 5457 5463 5469 5475 5481 5485 5490 5493 5497 5500 5503 5506 5506 5507 5509 5508 5507 5508 5509 5509 5510 5511 5509 5510 5510 5510 5510 5512 5513 5513 5514 5514 5515 5515 5517 5517 5518 5521 5521 5522 5523 5526 5528 5531 5534 5536 5538
5390 5399 5406 5414 5422 5431 5439 5446 5453 5460 5467 5472 5477 5482 5485 5489 5493 5496 5499 5500 5501 5503 5502 5502 5503 5504 5504 5505 5505 5505 5505 5506 5506 5508 5510 5511 5512 5511 5512 5513 5513 5514 5514 5516 5518 5519 5520 5522 5524 5526 5528 5531 5533 5535
5376 5385 5393 5401 5409 5418 5427 5434 5442 5450 5457 5463 5469 5474 5478 5481 5485 5489 5492 5493 5495 5497 5497 5497 5497 5498 5499 5499 5500 5499 5501 5501 5503 5505 5507 5509 5510 5511 5511 5511 5511 5512 5512 5514 5515 5516 5517 5519 5521 5523 5525 5527 5529 5530
5364 5372 5379 5387 5396 5405 5413 5422 5431 5439 5446 5453 5460 5465 5470 5474 5478 5482 5485 5487 5489 5492 5492 5492 5492 5493 5494 5494 5495 5495 5495 5497 5499 5502 5505 5506 5507 5509 5509 5509 5509 5509 5511 5512 5512 5513 5514 5516 5518 5519 5522 5524 5525 5527
5353 5361 5369 5377 5385 5392 5401 5409 5418 5428 5437 5443 5450 5457 5462 5466 5471 5475 5479 5482 5484 5484 5486 5487 5488 5489 5489 5489 5490 5490 5490 5492 5495 5498 5501 5504 5505 5506 5507 5507 5506 5506 5508 5508 5509 5510 5511 5513 5515 5517 5518 5520 5522 5524
5342 5351 5360 5368 5376 5384 5391 5397 5407 5416 5425 5434 5441 5448 5454 5460 5464 5469 5474 5476 5478 5479 5482 5482 5484 5485 5485 5485 5485 5486 5486 5488 5490 5492 5496 5499 5502 5502 5504 5504 5504 5504 5505 5505 5506 5508 5508 5510 5512 5514 5516 5517 5518 5520
5331 5342 5351 5360 5368 5376 5384 5391 5398 5406 5415 5425 5433 5441 5447 5453 5458 5462 5467 5470 5473 5475 5477 5479 5480 5482 5482 5482 5482 5482 5482 5484 5486 5489 5492 5496 5498 5499 5501 5501 5502 5502 5502 5503 5504 5505 5506 5507 5508 5510 5512 5512 5514 5516
5318 5331 5343 5353 5361 5370 5377 5385 5392 5399 5409 5419 5427 5434 5440 5447 5453 5458 5462 5466 5468 5472 5473 5475 5476 5478 5479 5479 5480 5480 5480 5480 5483 5485 5488 5491 5494 5496 5497 5498 5500 5500 5500 5501 5502 5502 5503 5504 5505 5506 5507 5508 5510 5511
5305 5322 5335 5346 5356 5364 5372 5379 5386 5395 5405 5414 5423 5430 5437 5443 5449 5454 5458 5461 5463 5464 5469 5472 5472 5474 5476 5477 5477 5479 5478 5479 5481 5484 5484 5486 5490 5492 5493 5495 5496 5497 5498 5498 5499 5500 5500 5501 5501 5502 5503 5504 5505 5506
5298 5314 5329 5341 5352 5360 5367 5376 5384 5393 5401 5410 5420 5428 5434 5441 5446 5450 5453 5456 5459 5463 5467 5468 5469 5471 5473 5475 5475 5476 5476 5477 5478 5481 5480 5483 5485 5486 5486 5489 5491 5493 5493 5494 5495 5495 5495 5496 5496 5497 5498 5498 5499 5499
5297 5314 5328 5339 5349 5358 5367 5375 5384 5394 5404 5412 5420 5426 5432 5438 5442 5446 5448 5452 5456 5460 5463 5464 5464 5467 5469 5471 5472 5474 5474 5475 5477 5477 5478 5480 5483 5481 5482 5484 5485 5486 5487 5488 5488 5489 5490 5491 5491 5491 5491 5491 5492 5492
5303 5317 5329 5339 5350 5359 5368 5377 5386 5395 5403 5412 5419 5425 5430 5434 5438 5442 5446 5450 5454 5458 5459 5460 5462 5464 5466 5468 5470 5471 5473 5474 5475 5476 5476 5477 5476 5474 5475 5478 5479 5480 5481 5482 5482 5482 5482 5483 5483 5483 5482 5482 5483 5484
5310 5322 5333 5343 5353 5362 5371 5380 5389 5396 5403 5410 5417 5421 5427 5432 5437 5442 5446 5450 5453 5454 5456 5457 5459 5461 5463 5466 5468 5470 5470 5471 5472 5472 5473 5471 5471 5470 5470 5471 5473 5474 5474 5475 5475 5475 5475 5474 5473 5473 5472 5472 5472 5472
5320 5331 5340 5350 5358 5366 5374 5382 5389 5397 5403 5409 5414 5419 5426 5432 5435 5440 5444 5447 5450 5451 5453 5455 5456 5458 5461 5463 5466 5467 5468 5469 5469 5470 5469 5468 5466 5466 5466 5467 5468 5468 5468 5468 5467 5467 5466 5465 5464 5462 5461 5461 5461 5460
5331 5339 5348 5355 5363 5370 5377 5384 5390 5397 5402 5407 5414 5419 5425 5430 5434 5439 5442 5445 5447 5449 5451 5453 5455 5457 5459 5461 5464 5465 5466 5467 5467 5466 5465 5464 5463 5462 5461 5461 5461 5460 5460 5459 5458 5457 5455 5453 5451 5450 5449 5449 5447 5446
5340 5347 5353 5360 5367 5373 5380 5385 5391 5395 5402 5407 5413 5419 5425 5429 5434 5438 5441 5444 5446 5448 5450 5451 5453 5455 5458 5459 5461 5462 5463 5463 5462 5462 5460 5459 5458 5457 5456 5455 5454 5452 5450 5448 5446 5445 5443 5441 5439 5437 5436 5435 5433 5432
5348 5354 5360 5366 5373 5378 5383 5390 5395 5399 5404 5410 5416 5421 5425 5429 5433 5437 5440 5442 5444 5446 5448 5450 5452 5454 5456 5457 5458 5459 5459 5458 5458 5457 5456 5454 5452 5450 5448 5446 5444 5442 5440 5437 5435 5432 5429 5427 5424 5422 5421 5419 5417 5416
5357 5362 5366 5373 5378 5385 5389 5394 5399 5403 5408 5413 5418 5422 5426 5430 5433 5436 5439 5441 5444 5446 5448 5450 5452 5453 5454 5455 5455 5455 5455 5454 5453 5452 5450 5448 5445 5443 5440 5437 5434 5430 5427 5423 5420 5416 5413 5409 5407 5404 5402 5400 5399 5398
5364 5369 5374 5379 5384 5389 5393 5397 5402 5407 5411 5416 5419 5423 5427 5430 5433 5436 5438 5441 5444 5446 5448 5450 5451 5452 5452 5452 5453 5452 5452 5451 5450 5448 5445 5442 5439 5435 5431 5427 5422 5418 5413 5408 5403 5399 5395 5391 5388 5385 5383 5381 5379 5378
5372 5376 5380 5385 5389 5393 5397 5401 5405 5409 5413 5417 5421 5424 5427 5430 5432 5435 5438 5441 5443 5444 5446 5448 5449 5450 5450 5451 5451 5450 5449 5448 5446 5443 5439 5435 5431 5427 5421 5416 5411 5405 5399 5392 5386 5381 5376 5372 5369 5366 5363 5361 5360 5359
5378 5382 5386 5389 5393 5396 5400 5404 5408 5412 5415 5418 5421 5423 5426 5429 5432 5435 5438 5440 5442 5444 5446 5447 5448 5449 5449 5449 5449 5447 5445 5443 5441 5438 5434 5430 5424 5419 5413 5407 5401 5393 5385 5377 5369 5363 5358 5355 5351 5349 5346 5344 5342 5341
5384 5387 5390 5393 5396 5400 5404 5405 5409 5412 5416 5419 5422 5425 5428 5431 5433 5436 5439 5441 5443 5445 5446 5446 5447 5448 5448 5447 5446 5444 5442 5440 5437 5434 5429 5424 5418 5412 5406 5399 5392 5383 5372 5363 5358 5353 5349 5345 5341 5338 5335 5332 5331 5329
5390 5393 5395 5398 5401 5405 5408 5411 5413 5417 5420 5423 5425 5428 5431 5433 5436 5438 5440 5442 5443 5444 5445 5446 5447 5447 5446 5445 5444 5442 5440 5437 5433 5429 5424 5419 5412 5405 5398 5392 5384 5374 5364 5356 5351 5346 5342 5338 5334 5330 5326 5324 5322 5320
5397 5400 5402 5404 5407 5410 5412 5415 5418 5420 5423 5425 5428 5431 5434 5436 5438 5440 5441 5443 5444 5445 5445 5446 5445 5445 5444 5443 5441 5438 5436 5432 5428 5424 5419 5413 5407 5399 5392 5385 5377 5369 5359 5351 5345 5340 5336 5331 5328 5324 5321 5318 5315 5313
5400 5403 5406 5408 5411 5414 5416 5418 5420 5423 5425 5428 5431 5434 5436 5438 5439 5441 5442 5443 5444 5444 5445 5444 5443 5442 5441 5439 5436 5433 5430 5426 5422 5418 5413 5408 5401 5394 5387 5380 5373 5365 5356 5348 5341 5336 5331 5327 5323 5319 5316 5313 5310 5308
5404 5406 5408 5411 5413 5416 5418 5421 5424 5426 5428 5431 5433 5435 5437 5438 5440 5441 5442 5443 5443 5443 5442 5441 5440 5438 5437 5434 5431 5428 5425 5421 5417 5413 5408 5403 5396 5390 5383 5376 5368 5361 5353 5345 5338 5332 5327 5322 5318 5315 5312 5309 5306 5303
5408 5410 5413 5415 5417 5419 5421 5423 5426 5428 5430 5432 5434 5435 5437 5438 5440 5440 5440 5440 5440 5439 5438 5437 5436 5434 5431 5429 5426 5422 5419 5415 5410 5406 5401 5397 5391 5385 5378 5371 5364 5357 5349 5342 5335 5328 5322 5318 5314 5310 5307 5304 5301 5299
5412 5414 5416 5417 5419 5421 5423 5425 5427 5429 5431 5433 5434 5434 5436 5436 5437 5437 5437 5437 5436 5435 5434 5432 5430 5428 5426 5423 5420 5416 5412 5408 5404 5400 5395 5391 5385 5380 5373 5366 5359 5352 5345 5338 5331 5325 5318 5313 5309 5305 5302 5299 5296 5293
5414 5415 5417 5418 5420 5422 5423 5425 5426 5428 5429 5431 5432 5432 5433 5433 5434 5434 5433 5433 5432 5430 5429 5427 5425 5422 5420 5417 5413 5410 5406 5402 5398 5394 5389 5384 5379 5374 5368 5362 5355 5349 5342 5335 5328 5322 5315 5309 5304 5300 5296 5293 5289 5286
5413 5414 5416 5417 5419 5420 5422 5423 5424 5425 5426 5427 5428 5429 5429 5430 5430 5429 5429 5428 5426 5425 5423 5421 5419 5416 5413 5410 5407 5403 5400 5396 5391 5387 5383 5378 5373 5368 5362 5356 5350 5344 5337 5331 5324 5318 5311 5305 5299 5295 5290 5287 5283 5280
5410 5412 5413 5414 5416 5417 5418 5419 5420 5421 5422 5423 5423 5424 5424 5424 5424 5424 5423 5422 5420 5418 5416 5414 5412 5409 5406 5403 5400 5396 5393 5389 5385 5381 5376 5371 5367 5362 5356 5350 5344 5338 5332 5326 5319 5313 5306 5300 5294 5289 5285 5280 5277 5273
5406 5407 5408 5409 5410 5411 5412 5413 5414 5415 5416 5416 5417 5417 5417 5418 5417 5418 5416 5414 5413 5411 5408 5406 5404 5401 5398 5395 5392 5389 5385 5381 5377 5373 5368 5364 5359 5354 5349 5343 5338 5332 5326 5320 5314 5308 5301 5295 5289 5283 5278 5274 5270 5266